Regional Weather Roundup
Issued by NWS Green Bay, WI

Home | Current Version | Previous Version | Text Only | Print | Product List | Glossary On
Versions: 1 2 3 4 5 6 7 8 9 10 11 12 13 14 15 16 17 18 19 20 21 22 23 24 25 26 27 28 29 30 31 32 33 34 35 36 37 38 39 40 41 42 43 44 45 46 47 48 49 50
000
ASUS43 KGRB 271611
RWRGRB

NORTH-CENTRAL AND NORTHEAST WISCONSIN REGIONAL WEATHER ROUNDUP
NATIONAL WEATHER SERVICE GREEN BAY WI
1100 AM CDT MON MAR 27 2017

WIZ005-009-010>012-018-019-271700-
NORTH CENTRAL WISCONSIN

CITY           SKY/WX    TMP DP  RH WIND       PRES   REMARKS
IRONWOOD       CLOUDY    38  35  89 N5        29.97R
MANITOWISH WTR CLOUDY    36  36 100 N5        29.94R
ARBOR VITAE    CLOUDY    37  35  93 NE5       29.93R
EAGLE RIVER    CLOUDY    36  35  94 N5        29.92S
LAND O LAKES   CLOUDY    35  34  95 N5        29.94F
RHINELANDER    CLOUDY    39  36  89 N5        29.93R
PHILLIPS       CLOUDY    37  35  93 N3        29.93S
ANTIGO         CLOUDY    36  35  96 NE5       29.93R
TOMAHAWK       CLOUDY    36  34  92 CALM      29.94R
MERRILL        CLOUDY    37  35  95 CALM      29.94R
$$

WIZ013-073-271700-
NORTHEAST WISCONSIN

CITY           SKY/WX    TMP DP  RH WIND       PRES   REMARKS
IRON MOUNTAIN  CLOUDY    38  33  82 N8        29.92S
MARINETTE        N/A    N/A N/A N/A MISG        N/A
OCONTO         CLOUDY    39  35  83 NE3       29.96R
$$

WIZ017-030-035>037-045-271700-
CENTRAL WISCONSIN

CITY           SKY/WX    TMP DP  RH WIND       PRES   REMARKS
MEDFORD        CLOUDY    36  33  90 CALM      29.93R
WAUSAU         CLOUDY    38  35  89 E3        29.92R
MOSINEE        CLOUDY    37  37 100 NE5       29.93R
MARSHFIELD     CLOUDY    39  35  86 CALM      29.93R
WISC RAPIDS    CLOUDY    42  40  92 SW3       29.95R
STEVENS POINT  CLOUDY    38  37  97 CALM      29.94R
WAUPACA        CLOUDY    44  39  83 CALM      29.95R
SHAWANO        CLOUDY    42  37  82 E3        29.95S
CLINTONVILLE   CLOUDY    41  37  87 E5        29.94S
WAUTOMA        CLOUDY    42  39  89 SE3       29.94F
$$

WIZ038-039-048-051-271700-
FOX VALLEY

CITY           SKY/WX    TMP DP  RH WIND       PRES   REMARKS
NWS GREEN BAY  CLOUDY    41  37  86 NE7       29.96R
APPLETON       CLOUDY    39  39 100 VRB5      29.93R
OSHKOSH        CLOUDY    41  38  89 E5        29.94S
FOND DU LAC    CLOUDY    42  37  82 CALM      29.95S
$$

WIZ022-050-052-271700-
EAST CENTRAL WISCONSIN

CITY           SKY/WX    TMP DP  RH WIND       PRES   REMARKS
EPHRAIM        CLOUDY    36  36 100 N6        29.94R
WASHINGTON ISL CLOUDY    36  34  92 N8        29.94R
STURGEON BAY   CLOUDY    38  35  89 N6        29.93R
MANITOWOC      CLOUDY    40  36  86 NE3       29.96S
SHEBOYGAN      CLOUDY    41  36  82 NW3       29.96R
$$

LMZ563-521-522-541>543-271700-
LAKESHORE

STATION/POSITION TIME  TEMP    WIND        PRES    VSBY  WAVE
                       AIR SEA DIR/SP/G                  HT/PER
                 (UTC) (F)     (DEG/KT/KT) (MB)    (MI)  (FT/S)
SHEBOYGAN LKSHOR 1600   39      70/  3/  4 1014.8R
KEWAUNEE LKSHORE 1548   37      CALM  /  1 1014.1R
NORTHPORT PIER   1540   35     290/  6/  8 1014.2R
CHAMBERS ISLAND  1540   39     340/  2/  3 1013.9R
MENOMINEE LKSHOR 1548   36      60/  1/  2 1013.7R
$$




USA.gov is the U.S. government's official web portal to all federal, state and local government web resources and services.